Weather History for KORH - September, 2014

Change the Weather History Date:

Friday, September 5, 2014

  Actual Average Record
Temperature  
Mean Temperature 74 °F 65 °F  
Max Temperature 83 °F 73 °F 88 °F (1953)
Min Temperature 64 °F 57 °F 39 °F (1930)
Degree Days  
Heating Degree Days 0 2  
Month to date heating degree days 0 10  
Since 1 July heating degree days 20 49  
Cooling Degree Days 9 2  
Month to date cooling degree days 40 14  
Year to date cooling degree days 402 440  
Growing Degree Days 23 (Base 50)    
Moisture  
Dew Point 66 °F    
Average Humidity 76    
Maximum Humidity 93    
Minimum Humidity 58    
Precipitation  
Precipitation 0.00 in 0.11 in 1.65 in (1896)
Month to date precipitation 0.94 0.57  
Year to date precipitation 35.97 31.93  
Sea Level Pressure  
Sea Level Pressure 30.12 in    
Wind  
Wind Speed 10 mph (SW)    
Max Wind Speed 17 mph    
Max Gust Speed 22 mph    
Visibility 10 miles    
Events      
T = Trace of Precipitation, MM = Missing Value Source: NWS Daily Summary

Daily Weather History Graph

Daily Weather History Graph

Search for Another Location

Airport or City:

Trip Planner

Search our weather history database for the weather conditions in past years. The results will help you decide how hot, cold, wet, or windy it might be!

Date:

Astronomy

Sep. 05, 2014 Rise Set
Actual Time 6:16 AM EDT 7:14 PM EDT
Civil Twilight 5:48 AM EDT 7:43 PM EDT
Nautical Twilight 5:14 AM EDT 8:17 PM EDT
Astronomical Twilight 4:38 AM EDT 8:52 PM EDT
Moon 4:44 PM EDT (9/5) 2:04 AM EDT (9/5)
Length of Visible Light 13h 54m
Length of Day
12h 57m
Waxing Gibbous, 83% of the Moon is Illuminated
Sep 5
Waxing Gibbous
Sep 8
Full
Sep 15
Last Quarter
Sep 24
New
Oct 1
First Quarter

Hourly Weather History & Observations

Time (EDT) Temp. Heat Index Dew Point Humidity Pressure Visibility Wind Dir Wind Speed Gust Speed Precip Events Conditions
12:54 AM 66.0 °F - 59.0 °F 78% 30.15 in 10.0 mi WSW 11.5 mph - N/A   Clear
1:54 AM 66.0 °F - 57.9 °F 75% 30.16 in 10.0 mi West 10.4 mph - N/A   Clear
2:54 AM 66.0 °F - 60.1 °F 81% 30.16 in 10.0 mi West 11.5 mph - N/A   Clear
3:54 AM 66.0 °F - 61.0 °F 84% 30.17 in 10.0 mi West 10.4 mph - N/A   Clear
4:54 AM 66.0 °F - 62.1 °F 87% 30.16 in 10.0 mi West 9.2 mph - N/A   Clear
5:54 AM 64.0 °F - 61.0 °F 90% 30.17 in 10.0 mi WSW 8.1 mph - N/A   Clear
6:54 AM 64.9 °F - 62.1 °F 90% 30.17 in 10.0 mi WSW 10.4 mph - N/A   Clear
7:54 AM 68.0 °F - 63.0 °F 84% 30.17 in 10.0 mi WSW 10.4 mph - N/A   Clear
8:54 AM 72.0 °F - 64.0 °F 76% 30.18 in 10.0 mi WSW 9.2 mph - N/A   Clear
9:54 AM 73.4 °F - 64.4 °F 73% 30.20 in 10.0 mi WSW 10.4 mph - N/A   Clear
10:54 AM 75.9 °F - 66.0 °F 71% 30.18 in 10.0 mi SW 9.2 mph - N/A   Clear
11:54 AM 79.0 °F - 66.9 °F 66% 30.15 in 10.0 mi SSW 6.9 mph - N/A   Clear
12:54 PM 82.4 °F 84.6 °F 66.2 °F 58% 30.13 in 10.0 mi SSW 10.4 mph - N/A   Partly Cloudy
1:54 PM 82.0 °F 84.5 °F 66.9 °F 60% 30.11 in 10.0 mi SW 13.8 mph 20.7 mph N/A   Mostly Cloudy
2:54 PM 82.9 °F 85.4 °F 66.9 °F 58% 30.10 in 10.0 mi SW 12.7 mph - N/A   Mostly Cloudy
3:54 PM 82.0 °F 84.9 °F 68.0 °F 62% 30.10 in 10.0 mi SW 13.8 mph - N/A   Partly Cloudy
4:54 PM 82.0 °F 84.9 °F 68.0 °F 62% 30.09 in 10.0 mi SW 10.4 mph - N/A   Partly Cloudy
5:54 PM 80.6 °F 82.7 °F 66.2 °F 61% 30.08 in 10.0 mi SSW 10.4 mph - N/A   Clear
6:54 PM 77.0 °F - 69.1 °F 76% 30.06 in 10.0 mi SSW 6.9 mph - N/A   Clear
7:54 PM 75.0 °F - 69.1 °F 82% 30.07 in 10.0 mi SSW 6.9 mph - N/A   Clear
8:54 PM 73.0 °F - 69.1 °F 87% 30.04 in 10.0 mi SSW 10.4 mph - N/A   Partly Cloudy
9:16 PM 72.0 °F - 69.1 °F 91% 30.06 in 10.0 mi SW 11.5 mph - N/A   Mostly Cloudy
9:45 PM 73.0 °F - 69.1 °F 87% 30.06 in 10.0 mi SW 11.5 mph - N/A   Overcast
9:54 PM 73.0 °F - 69.1 °F 87% 30.04 in 10.0 mi SW 12.7 mph - N/A   Overcast
10:54 PM 73.0 °F - 70.0 °F 90% 30.02 in 10.0 mi SW 11.5 mph - N/A   Overcast
11:54 PM 72.0 °F - 69.1 °F 91% 30.01 in 10.0 mi SW 10.4 mph - N/A   Overcast